Location: LDNL
(36.4545°S, 141.6685°E)
Time: 18:53:32
(UTC+10:00)

Tiros 1 despin weight - Pass Details

Date: 31 January 2022
Orbit: 592 x 639 km, 48.2° (Epoch: 28 May)

Event Time Altitude Azimuth Distance (km) Brightness Sun altitude
Exits shadow 03:55:07 49° 115° (ESE) 812 ? -28.1°
Drops below altitude 10° 03:58:31 10° 123° (ESE) 2,000 ? -27.7°
Sets 04:00:49 0° 124° (SE) 2,902 ? -27.4°
